Location: Newark
(46.9000°N, 28.3500°E)
Time: 17:22:47
(UTC+00:00)

Vanguard 1 Rocket - Pass Details

Date: 30 August 2019
Orbit: 651 x 4225 km, 34.3° (Epoch: 20 September)

Event Time Altitude Azimuth Distance (km) Brightness Sun altitude
Rises 21:06:42 0° 215° (SW) 4,077 - -32.6°
Reaches altitude 10° 21:12:10 10° 182° (S) 2,508 - -32.9°
Maximum altitude 21:13:43 11° 165° (SSE) 2,293 - -33.0°
Drops below altitude 10° 21:15:08 10° 148° (SSE) 2,261 - -33.0°
Sets 21:19:08 0° 111° (ESE) 2,982 - -33.2°
